| time (UTC) | temp F | wind direction | speed MPH | gust MPH | rain 1hr in | rain 24hr in | rain mn in | humidity % | barometer mb |
| 20260505220057 | 53 | 333 | 3.0 | 6.0 | 0.00 | 0.44 | 0.05 | 61 | 985.6 |
| 20260505214552 | 53 | 338 | 2.0 | 4.0 | 0.00 | 0.44 | 0.05 | 61 | 985.5 |
| 20260505213049 | 53 | 355 | 3.0 | 5.0 | 0.00 | 0.44 | 0.05 | 61 | 985.7 |
| 20260505211545 | 52 | 61 | 1.0 | 6.0 | 0.01 | 0.44 | 0.05 | 61 | 985.7 |
| 20260505210039 | 52 | 351 | 4.0 | 8.0 | 0.01 | 0.44 | 0.05 | 60 | 985.9 |
| 20260505204536 | 51 | 355 | 3.0 | 7.0 | 0.01 | 0.44 | 0.05 | 60 | 986.2 |
| 20260505203034 | 51 | 355 | 4.0 | 8.0 | 0.01 | 0.44 | 0.05 | 61 | 986.5 |
| 20260505201532 | 51 | 348 | 4.0 | 8.0 | 0.00 | 0.43 | 0.04 | 60 | 986.8 |
| 20260505200020 | 51 | 336 | 4.0 | 10.0 | 0.01 | 0.43 | 0.04 | 58 | 986.9 |
| 20260505194521 | 52 | 355 | 5.0 | 11.0 | 0.01 | 0.43 | 0.04 | 56 | 987.0 |
| 20260505193011 | 51 | 347 | 4.0 | 8.0 | 0.02 | 0.43 | 0.04 | 55 | 987.0 |
| 20260505191507 | 51 | 317 | 5.0 | 9.0 | 0.03 | 0.43 | 0.04 | 55 | 987.1 |
| 20260505190003 | 51 | 350 | 5.0 | 9.0 | 0.02 | 0.42 | 0.03 | 51 | 987.2 |
| 20260505184603 | 51 | 355 | 7.0 | 10.0 | 0.03 | 0.42 | 0.03 | 55 | 987.1 |
| 20260505183054 | 52 | 349 | 5.0 | 8.0 | 0.02 | 0.41 | 0.02 | 50 | 987.0 |
| 20260505181550 | 52 | 321 | 5.0 | 9.0 | 0.01 | 0.40 | 0.01 | 51 | 987.2 |
| 20260505180046 | 52 | 351 | 9.0 | 14.0 | 0.01 | 0.40 | 0.01 | 59 | 987.0 |
| 20260505174541 | 53 | 317 | 8.0 | 13.0 | 0.00 | 0.39 | 0.00 | 60 | 986.9 |
| 20260505173036 | 53 | 330 | 5.0 | 12.0 | 0.00 | 0.39 | 0.00 | 60 | 986.8 |
| 20260505171534 | 53 | 337 | 6.0 | 10.0 | 0.00 | 0.39 | 0.00 | 58 | 986.9 |
| 20260505170028 | 53 | 355 | 6.0 | 10.0 | 0.00 | 0.39 | 0.00 | 58 | 986.6 |
| 20260505164524 | 53 | 5 | 4.0 | 7.0 | 0.00 | 0.39 | 0.00 | 59 | 986.6 |
| 20260505163018 | 52 | 360 | 4.0 | 9.0 | 0.00 | 0.39 | 0.00 | 60 | 986.6 |
| 20260505161517 | 52 | 11 | 9.0 | 12.0 | 0.00 | 0.39 | 0.00 | 60 | 986.5 |
| 20260505153108 | 53 | 35 | 4.0 | 9.0 | 0.00 | 0.39 | 0.00 | 56 | 985.5 |
| 20260505151600 | 52 | 15 | 2.0 | 9.0 | 0.00 | 0.39 | 0.00 | 55 | 985.1 |
| 20260505124512 | 50 | 306 | 9.0 | 19.0 | 0.00 | 0.39 | 0.00 | 63 | 986.0 |
| 20260505123007 | 51 | 335 | 10.0 | 18.0 | 0.00 | 0.39 | 0.00 | 61 | 985.8 |
| 20260505121503 | 51 | 314 | 11.0 | 17.0 | 0.00 | 0.39 | 0.00 | 61 | 985.6 |
| 20260505120107 | 51 | 332 | 13.0 | 18.0 | 0.00 | 0.39 | 0.00 | 61 | 985.3 |
| 20260505114555 | 52 | 300 | 9.0 | 14.0 | 0.00 | 0.39 | 0.00 | 61 | 985.3 |
| 20260505113052 | 52 | 349 | 6.0 | 11.0 | 0.00 | 0.39 | 0.00 | 61 | 984.7 |
| 20260505111546 | 52 | 311 | 7.0 | 10.0 | 0.00 | 0.39 | 0.00 | 61 | 983.8 |
| 20260505101530 | 54 | 355 | 10.0 | 14.0 | 0.00 | 0.39 | 0.00 | 60 | 983.4 |
| 20260505100029 | 54 | 332 | 6.0 | 12.0 | 0.00 | 0.39 | 0.00 | 60 | 983.1 |
| 20260505094520 | 54 | 355 | 8.0 | 13.0 | 0.00 | 0.39 | 0.00 | 60 | 983.2 |
| 20260505093015 | 55 | 360 | 5.0 | 15.0 | 0.00 | 0.39 | 0.00 | 60 | 983.3 |
| 20260505091511 | 55 | 341 | 3.0 | 6.0 | 0.00 | 0.39 | 0.00 | 59 | 983.3 |
| 20260505090005 | 56 | 351 | 7.0 | 13.0 | 0.00 | 0.39 | 0.00 | 60 | 982.9 |
| 20260505084501 | 57 | 5 | 7.0 | 12.0 | 0.00 | 0.39 | 0.00 | 58 | 982.6 |
| 20260505083111 | 56 | 11 | 6.0 | 12.0 | 0.00 | 0.39 | 0.00 | 58 | 982.8 |
| 20260505081601 | 56 | 325 | 2.0 | 5.0 | 0.00 | 0.39 | 0.00 | 53 | 982.8 |
| 20260505080058 | 57 | 336 | 1.0 | 3.0 | 0.00 | 0.39 | 0.00 | 51 | 982.6 |
| 20260505074545 | 57 | 309 | 4.0 | 7.0 | 0.00 | 0.39 | 0.00 | 52 | 982.2 |
| 20260505073050 | 57 | 333 | 3.0 | 6.0 | 0.00 | 0.39 | 0.00 | 9 | 981.4 |
| 20260505071545 | 57 | 336 | 0.0 | 5.0 | 0.00 | 0.39 | 0.00 | 100 | 981.2 |
| 20260505070041 | 57 | 341 | 4.0 | 7.0 | 0.00 | 0.39 | 0.00 | 100 | 981.0 |
| 20260505064527 | 57 | 323 | 4.0 | 6.0 | 0.00 | 0.39 | 0.00 | 100 | 980.6 |
| 20260505063029 | 57 | 145 | 0.0 | 2.0 | 0.00 | 0.39 | 0.00 | 100 | 980.4 |
| 20260505061526 | 57 | 145 | 0.0 | 0.0 | 0.00 | 0.39 | 0.00 | 100 | 980.4 |
| 20260505060024 | 56 | 145 | 0.0 | 3.0 | 0.00 | 0.39 | 0.00 | 100 | 980.5 |
| 20260505054510 | 57 | 144 | 1.0 | 3.0 | 0.00 | 0.39 | 0.00 | 100 | 980.0 |
| 20260505053006 | 57 | 144 | 0.0 | 4.0 | 0.00 | 0.39 | 0.00 | 100 | 979.6 |
| 20260505051601 | 56 | 144 | 2.0 | 7.0 | 0.00 | 0.39 | 0.00 | 100 | 979.6 |
| 20260505041553 | 56 | 115 | 7.0 | 13.0 | 0.39 | 0.39 | 0.39 | 100 | 978.5 |
| 20260505040046 | 56 | 107 | 1.0 | 9.0 | 0.37 | 0.37 | 0.37 | 100 | 978.1 |
| 20260505034534 | 58 | 344 | 1.0 | 14.0 | 0.35 | 0.35 | 0.35 | 100 | 978.7 |
| 20260505033033 | 67 | 350 | 15.0 | 34.0 | 0.00 | 0.00 | 0.00 | 61 | 979.6 |
| 20260505031526 | 68 | 63 | 2.0 | 9.0 | 0.00 | 0.00 | 0.00 | 57 | 977.2 |
| 20260505030021 | 69 | 338 | 10.0 | 15.0 | 0.00 | 0.00 | 0.00 | 61 | 977.7 |
| 20260505024518 | 70 | 205 | 2.0 | 7.0 | 0.00 | 0.00 | 0.00 | 63 | 977.2 |
| 20260505023012 | 70 | 196 | 6.0 | 12.0 | 0.00 | 0.00 | 0.00 | 63 | 976.8 |
| 20260505021508 | 71 | 197 | 8.0 | 12.0 | 0.00 | 0.00 | 0.00 | 63 | 976.7 |
| 20260505020004 | 71 | 192 | 9.0 | 15.0 | 0.00 | 0.00 | 0.00 | 62 | 976.5 |
| 20260505014611 | 71 | 186 | 8.0 | 14.0 | 0.00 | 0.00 | 0.00 | 61 | 976.4 |
| 20260505013057 | 72 | 183 | 9.0 | 16.0 | 0.00 | 0.00 | 0.00 | 61 | 976.3 |
| 20260505011556 | 72 | 180 | 9.0 | 18.0 | 0.00 | 0.00 | 0.00 | 61 | 976.2 |
| 20260505010054 | 73 | 196 | 9.0 | 16.0 | 0.00 | 0.00 | 0.00 | 61 | 976.1 |
| 20260505004549 | 73 | 167 | 11.0 | 19.0 | 0.00 | 0.00 | 0.00 | 60 | 976.0 |
| 20260505003053 | 74 | 188 | 12.0 | 17.0 | 0.00 | 0.00 | 0.00 | 59 | 976.1 |
| 20260505001533 | 75 | 175 | 10.0 | 16.0 | 0.00 | 0.00 | 0.00 | 58 | 976.2 |
| 20260505000034 | 75 | 183 | 11.0 | 18.0 | 0.00 | 0.00 | 0.00 | 58 | 976.3 |
| 20260504234524 | 76 | 186 | 13.0 | 20.0 | 0.00 | 0.00 | 0.00 | 57 | 975.9 |
| 20260504233019 | 76 | 180 | 15.0 | 22.0 | 0.00 | 0.00 | 0.00 | 55 | 975.9 |
| 20260504231517 | 77 | 180 | 14.0 | 24.0 | 0.00 | 0.00 | 0.00 | 54 | 976.3 |
| 20260504230011 | 77 | 183 | 14.0 | 21.0 | 0.00 | 0.00 | 0.00 | 54 | 976.4 |
| 20260504224515 | 78 | 181 | 14.0 | 22.0 | 0.00 | 0.00 | 0.00 | 53 | 976.7 |
| 20260504223002 | 78 | 183 | 13.0 | 22.0 | 0.00 | 0.00 | 0.00 | 53 | 976.9 |
| 20260504221602 | 78 | 178 | 15.0 | 24.0 | 0.00 | 0.00 | 0.00 | 51 | 977.0 |